Location: Holcomb Observatory
(44.4922°N, 73.1654°W)
Time: 19:43:22
(UTC-04:00)

Daily predictions for brighter satellites

Satellite Brightness Start Highest point End
(mag) Time Altitude Azimuth Time Altitude Azimuth Time Altitude Azimuth
CENTAUR R/B 2.7 20:05:43 10° SW 20:11:47 88° WNW 20:18:47 10° NE
ERBS 3.1 20:12:19 10° NW 20:15:38 42° NE 20:18:57 10° ESE
Cosmos 1455 2.3 20:14:10 10° S 20:17:51 52° E 20:21:34 10° NNE
Cosmos 1869 4.1 20:17:49 10° SSE 20:21:18 31° E 20:24:50 10° NNE
Cosmos 1697 Rocket 3.0 20:17:01 10° SSW 20:22:40 74° WNW 20:28:21 10° NNE
SeaSat 1 4.2 20:21:28 10° E 20:24:53 19° NE 20:28:18 10° N
ATLAS CENTAUR R/B 3.3 20:23:22 10° W 20:25:31 25° SW 20:29:39 10° SSE
Cosmos 1400 Rocket 3.2 20:22:31 10° NNW 20:26:23 64° W 20:30:15 10° S
Cosmos 2297 Rocket 4.3 20:24:01 10° NW 20:28:42 27° WSW 20:33:21 10° SSW
Nadezhda 4 Rocket 4.2 20:22:41 10° N 20:28:57 80° W 20:35:15 10° S
Cosmos 1892 3.3 20:29:15 10° NNW 20:33:00 59° W 20:36:44 10° S
ALOS 4.1 20:28:50 10° SSW 20:33:03 33° W 20:37:17 10° NNW
Cosmos 1503 Rocket 4.4 20:32:21 10° NNW 20:37:30 49° ENE 20:42:25 11° SE
Cosmos 1092 Rocket 4.1 20:31:18 10° N 20:37:40 87° E 20:44:01 10° S
Cosmos 1634 Rocket 4.1 20:31:32 10° S 20:37:41 61° E 20:43:55 10° NNE
Cosmos 2263 Rocket 3.1 20:33:11 10° N 20:38:11 33° NE 20:42:39 12° ESE
Cosmos 1315 Rocket 2.9 20:34:36 10° N 20:38:44 89° WNW 20:42:46 10° S
Intercosmos 25 Rocket 3.9 20:36:19 10° SSE 20:39:09 30° E 20:42:33 10° NNE
Cosmos 1655 Rocket 4.5 20:33:16 10° N 20:39:23 45° ENE 20:45:26 10° SSE
Cosmos 1354 Rocket 4.3 20:35:38 10° NNW 20:40:49 53° ENE 20:45:44 11° SE
Cosmos 2322 Rocket 2.7 20:38:16 10° S 20:43:21 37° ESE 20:48:28 10° NE
USA 186 2.1 20:41:08 10° S 20:43:44 54° W 20:46:35 10° NNW
H-2A R/B 4.0 20:43:59 10° E 20:46:10 13° ENE 20:48:20 10° NNE
Cosmos 1707 Rocket 3.6 20:43:36 10° S 20:48:04 85° W 20:52:31 10° N
YAOGAN 6 3.5 20:45:47 14° SE 20:48:22 32° ENE 20:51:38 10° N
Abrixas rocket 2.1 20:45:42 10° WSW 20:48:58 68° SSE 20:52:13 10° ENE
USA 267 4.1 20:43:05 10° NE 20:49:25 54° NNW 20:55:43 10° WSW
Meteor 2-20 Rocket 4.4 20:46:58 10° N 20:53:05 72° E 20:59:12 10° SSE
Cosmos 1733 Rocket 3.5 20:49:36 10° N 20:53:53 44° ENE 20:57:20 15° SE
Cosmos 2360 Rocket 3.5 20:52:40 15° SE 20:54:48 18° E 20:58:31 10° ENE
Cosmos 1980 Rocket 2.6 20:49:31 10° SW 20:55:10 68° WNW 21:00:53 10° NNE
Helios 1B rocket 2.4 20:53:37 10° NNE 20:57:45 87° ESE 21:01:51 10° SSW
Meteor 1-29 2.9 20:56:14 10° NNE 20:59:44 76° E 21:03:12 10° S
Lacrosse 4 Rocket 1.5 20:55:58 10° NNW 21:00:15 65° ENE 21:03:17 19° SE
Cosmos 1862 Rocket 4.1 20:56:58 10° SSE 21:01:02 40° E 21:05:14 10° NNE
Cosmos 1825 2.1 21:01:25 10° N 21:05:14 80° E 21:08:24 14° SSE
Cosmos 1862 3.5 21:01:45 10° N 21:05:43 55° E 21:08:23 19° SSE
Envisat 3.2 21:03:49 10° S 21:08:53 72° WSW 21:13:58 10° NNW
SL-16 R/B 2.2 21:04:37 10° S 21:10:10 60° ESE 21:15:45 10° NNE
Cosmos 1939 Rocket 3.1 21:09:41 10° S 21:13:40 70° WSW 21:17:42 10° NNW
Milstar 3 4.2 21:08:54 10° WSW 21:14:19 21° S 21:17:22 16° SSE
Cosmos 2242 Rocket 3.6 21:09:51 10° S 21:14:23 89° E 21:18:55 10° N
SPOT 5 3.6 21:15:36 23° ESE 21:17:58 37° ENE 21:22:17 10° N
CZ-4B DEB 3.9 21:15:52 11° S 21:18:39 39° W 21:21:33 10° NNW
Cosmos 2279 Rocket 3.9 21:13:56 10° S 21:20:10 77° E 21:26:25 10° N
ATLAS 5 CENTAUR R/B 2.9 21:14:50 10° NNW 21:20:31 48° NE 21:24:21 22° ESE
MetOp-B 4.3 21:21:52 24° SE 21:25:01 56° ENE 21:30:16 10° N
USA 234 3.8 21:20:01 17° SSE 21:25:03 53° SW 21:31:27 10° WNW
OAO 3 Rocket 4.3 21:24:19 10° SW 21:28:26 27° S 21:29:18 25° SSE
Cosmos 2278 Rocket 4.5 21:27:06 10° NNE 21:28:56 11° NE 21:30:45 10° ENE
Resurs 01 Rocket 4.4 21:27:42 10° SW 21:30:20 15° W 21:32:58 10° NW
SPOT 1/Viking Rocket 4.2 21:30:50 27° ESE 21:32:55 38° ENE 21:37:43 10° N
ARGOS 3.4 21:30:20 28° SE 21:32:55 51° ENE 21:38:08 10° N
Atlas Centaur 2 4.0 21:27:44 10° SSW 21:33:20 22° SSE 21:34:13 22° SSE
Cosmos 1428 Rocket 4.5 21:30:05 10° N 21:36:13 82° W 21:41:11 16° S
MOS 1-B Rocket 4.1 21:35:42 28° SE 21:38:45 55° ENE 21:44:15 10° N
Cosmos 1844 Rocket 4.0 21:37:20 10° N 21:41:55 25° NE 21:44:04 20° E
ERS-1 Rocket 3.2 21:42:11 21° S 21:45:32 67° WSW 21:50:33 10° NNW
Cosmos 1408 4.5 21:43:56 10° NNW 21:47:09 28° W 21:50:06 11° SSW
ERBS 4.1 21:49:22 10° WNW 21:52:08 22° SW 21:52:42 21° SW
Sich 1 Rocket 3.5 21:48:06 10° N 21:52:34 82° E 21:53:57 45° SSE
Meteor 1-14 Rocket 4.2 21:51:52 10° N 21:57:31 70° ENE 21:59:36 40° SSE
Cosmos 2219 Rocket 4.2 22:03:41 13° ENE 22:03:41 13° ENE 22:04:39 10° ENE
SeaSat 1 2.4 22:00:11 42° SSE 22:01:52 79° WSW 22:06:50 10° NNW
Cosmos 1992 Rocket 4.4 21:58:56 10° SSW 22:04:06 62° WNW 22:09:20 10° NNE
H-2A R/B 2.7 22:07:13 38° ENE 22:07:13 38° ENE 22:11:13 10° N
USA 229 DEB 3.8 22:04:47 30° S 22:07:43 48° ESE 22:14:19 10° NE
USA 229 3.8 22:05:03 32° S 22:07:49 48° ESE 22:14:25 10° NE
Cosmos 1908 Rocket 3.8 22:05:39 10° NNW 22:09:57 64° W 22:11:04 46° SSW
USA 245 4.3 22:08:34 35° S 22:11:14 77° WSW 22:16:30 10° NNW
Landsat 7 4.0 22:11:17 51° E 22:11:49 54° ENE 22:16:27 10° N
Cosmos 2237 4.4 22:13:32 47° ESE 22:13:42 47° ESE 22:19:10 10° NE
Meteor 1-25 Rocket 4.1 22:11:30 10° N 22:17:08 75° E 22:18:23 54° SE
DMSP B5D2-2 4.4 22:12:37 10° NNE 22:17:32 45° E 22:17:32 45° E
Cosmos 1867 3.5 22:16:07 10° NW 22:21:37 82° SW 22:22:40 59° SSE
Cosmos 2263 Rocket 3.1 22:17:00 10° NW 22:22:11 41° WSW 22:24:22 29° SSW
COSMOS 2428 3.2 22:23:05 40° E 22:23:05 40° E 22:27:42 10° NE
Cosmos 1782 Rocket 3.5 22:19:30 10° N 22:23:53 79° W 22:24:09 74° SW
Okean 2 Rocket 3.0 22:19:37 10° N 22:24:10 76° E 22:24:13 76° E
H-2A R/B 1.8 22:24:03 63° SSE 22:24:52 89° E 22:29:52 10° NNW
Abrixas rocket 3.6 22:22:44 10° W 22:25:18 38° NW 22:25:18 38° NW
Terra 2.0 22:26:53 54° ENE 22:26:56 54° ENE 22:31:35 10° N
Cosmos 2322 Rocket 3.7 22:22:14 10° WSW 22:27:23 36° NW 22:32:34 10° NNE
IGS 5A 4.0 22:35:11 49° NNE 22:35:11 49° NNE 22:38:34 10° N
Cosmos 2360 Rocket 2.4 22:34:16 21° SW 22:38:09 70° WNW 22:43:50 10° NNE
Lacrosse 4 Rocket 3.9 22:36:14 10° WNW 22:38:28 14° WSW 22:39:39 13° WSW
SL-08 RB Rocket 4.4 22:37:52 44° SW 22:38:32 47° W 22:42:59 10° NNW
Meteor 1-20 Rocket 4.1 22:33:44 10° NNW 22:39:18 82° W 22:40:13 63° S
Cosmos 1844 4.0 22:35:44 10° NNW 22:41:18 52° ENE 22:41:50 50° E
Cosmos 2322 3.8 22:40:41 30° SW 22:43:34 73° WNW 22:49:18 10° NNE
Cosmos 968 Rocket 4.3 22:40:36 10° NW 22:45:27 41° WSW 22:46:23 38° SW
Geosat 3.8 22:43:03 10° NNE 22:47:59 82° E 22:47:59 82° E
Meteor 2-6 Rocket 4.2 22:49:28 68° ESE 22:49:45 69° E 22:55:41 10° NNE
ASTEX 1 3.4 22:50:52 75° NE 22:50:52 75° NE 22:55:38 10° N
Cosmos 1606 4.3 22:53:07 30° NNE 22:53:07 30° NNE 22:55:08 10° N
deb Chang Zheng 4 4.2 22:47:12 10° NNE 22:50:34 51° NNE 22:50:34 51° NNE
SL-16 R/B 4.3 22:50:05 10° WSW 22:54:42 25° NW 22:59:20 10° N
Okean 1-7 3.8 22:55:18 47° W 22:55:27 47° WNW 22:59:45 10° N
SPOT 5 4.5 22:54:50 24° WSW 22:56:04 26° W 23:00:05 10° NW
CZ-4C R/B 3.5 22:50:30 10° NNW 22:57:07 45° NE 22:59:45 34° E
Cosmos 2151 Rocket 4.1 22:52:55 10° N 22:56:27 56° N 22:56:27 56° N
Cosmos 1782 3.9 22:59:16 43° NNW 22:59:16 43° NNW 23:02:06 10° N
Cosmos 2333 Rocket 3.3 23:04:54 32° ENE 23:04:54 32° ENE 23:08:25 10° NE
CZ-4B R/B 4.1 22:58:31 10° NNE 23:01:53 43° NE 23:01:53 43° NE
ATLAS 5 CENTAUR R/B 3.2 22:59:40 10° NW 23:05:15 39° WSW 23:05:54 38° SW
Cosmos 2333 4.1 23:05:37 79° ENE 23:05:37 79° ENE 23:11:08 10° NNE
Cosmos 2237 Rocket 3.6 23:14:49 26° ENE 23:14:49 26° ENE 23:17:44 10° NE
Cosmos 2278 Rocket 2.6 23:08:52 10° NNW 23:14:18 53° NE 23:14:18 53° NE
Meteor 1-27 Rocket 3.8 23:19:29 71° NE 23:19:29 71° NE 23:24:32 10° NNE
Cosmos 1553 Rocket 3.9 23:23:21 83° SW 23:23:36 87° W 23:29:53 10° N
Cosmos 1844 Rocket 3.1 23:20:43 10° NNW 23:25:44 54° W 23:25:44 54° W
Okean 1 Rocket 4.4 23:22:17 10° N 23:25:05 37° NNE 23:25:05 37° NNE
SL-08 R/B 4.4 23:22:54 10° NNW 23:29:03 73° W 23:29:11 72° WSW
Cosmos 1898 Rocket 4.1 23:31:42 10° NNW 23:35:51 51° NNE 23:35:51 51° NNE
CZ-2C R/B 4.2 23:32:59 10° NNE 23:35:56 25° ENE 23:35:56 25° ENE
Meteor 1-11 Rocket 4.0 23:33:07 10° NNW 23:38:03 61° WNW 23:38:03 61° WNW
ALOS 2 4.4 23:41:34 26° NNE 23:41:34 26° NNE 23:43:59 10° N
H-2A R/B 4.3 23:44:20 19° WNW 23:44:20 19° WNW 23:46:36 10° NW
NOSS 0 Rocket 4.1 23:45:05 60° NE 23:45:05 60° NE 23:50:10 10° NNE
Cosmos 2219 Rocket 2.5 23:45:20 64° N 23:45:20 64° N 23:50:13 10° NNE
S3M 4.3 23:51:34 56° W 23:51:51 56° WNW 23:57:57 10° N
